Home   Weather   Mount Vernon   Past weeks
Flag for USA

Past Weather in Mount Vernon, New York, USA — Yesterday and Last 2 Weeks

Now
63 °F

Passing clouds.


Feels Like: 63 °F
Forecast: 64 / 52 °F
Wind: 9 mph from Northeast

Location: La Guardia Airport

Current Time: Oct 21, 2019 at 2:19:45 pm

Latest Report: Oct 21, 2019 at 12:51 pm


Visibility: 10 mi

Pressure: 30.06 "Hg

Humidity: 54%

Dew Point: 46 °F

Location of Mount VernonLocation

Past Weather in Mount Vernon — Graph

°F

Mount Vernon Temperature Yesterday

Maximum temperature yesterday: 59 °F (at 1:51 pm)
Minimum temperature yesterday: 52 °F (at 4:51 am)
Average temperature yesterday: 56 °F

High & Low Weather Summary for the Past Weeks

 TemperatureHumidityPressure
High78 °F (Oct 7, 1:51 pm)90% (Oct 8, 12:51 am)30.29 "Hg (Oct 8, 12:51 am)
Low47 °F (Oct 19, 4:51 am)25% (Oct 14, 4:51 pm)29.10 "Hg (Oct 16, 10:28 pm)
Average60 °F63%30.00 "Hg
* Reported Oct 6 12:51 pm — Oct 21 12:51 pm, Mount Vernon. Weather by CustomWeather, © 2019

Note: Actual official high and low records may vary slightly from our data, if they occured in-between our weather recording intervals... More about our weather records

Advertising

Mount Vernon Weather History for the Previous 24 Hours

Scroll right to see more
 ConditionsComfort  
Time TempWeatherWind HumidityBarometerVisibility
12:51 pm
Mon, Oct 21
63 °FPassing clouds.9 mph54%30.06 "Hg10 mi
11:51 am62 °FPassing clouds.13 mph54%30.06 "Hg10 mi
10:51 am60 °FSunny.13 mph56%30.06 "Hg10 mi
9:51 am59 °FSunny.15 mph58%30.06 "Hg10 mi
8:51 am55 °FSunny.9 mph69%30.05 "Hg10 mi
7:51 am53 °FPassing clouds.7 mph74%30.04 "Hg10 mi
6:51 am52 °FPassing clouds.9 mph80%30.03 "Hg10 mi
5:51 am52 °FPassing clouds.9 mph80%30.01 "Hg10 mi
4:51 am52 °FPassing clouds.10 mph83%29.99 "Hg10 mi
3:51 am54 °FOvercast.10 mph80%29.97 "Hg10 mi
3:27 am54 °FMostly cloudy.12 mph80%29.98 "Hg10 mi
2:51 am54 °FMostly cloudy.12 mph80%29.98 "Hg10 mi
2:24 am54 °FOvercast.16 mph80%29.97 "Hg10 mi
1:51 am54 °FMostly cloudy.12 mph83%29.97 "Hg10 mi
12:51 am53 °FLight rain. Overcast.14 mph86%29.96 "Hg10 mi
12:01 am54 °FOvercast.12 mph83%29.99 "Hg10 mi
11:17 pm
Sun, Oct 20
54 °FOvercast.15 mph83%29.99 "Hg10 mi
10:51 pm55 °FCool.14 mph83%29.98 "Hg10 mi
10:31 pm55 °FMostly cloudy.15 mph87%29.98 "Hg10 mi
9:51 pm55 °FOvercast.14 mph83%29.99 "Hg10 mi
8:58 pm55 °FLight rain. Mostly cloudy.9 mph80%29.99 "Hg10 mi
7:51 pm55 °FLight rain. Overcast.12 mph80%29.98 "Hg10 mi
6:51 pm56 °FLight rain. Mostly cloudy.9 mph75%29.99 "Hg7 mi
6:21 pm57 °FCool.12 mph78%29.98 "Hg9 mi
5:51 pm58 °FRain. Mostly cloudy.10 mph84%29.98 "Hg4 mi
4:51 pm58 °FLight rain. Overcast.9 mph84%29.99 "Hg5 mi
3:51 pm59 °FRain. More clouds than sun.10 mph84%30.00 "Hg5 mi
3:17 pm58 °FLight rain. More clouds than sun.9 mph84%30.01 "Hg8 mi
2:51 pm58 °FLight rain. Mostly cloudy.8 mph84%30.01 "Hg8 mi
Weather by CustomWeather, © 2019

See weather overview